Regional Weather Roundup
Issued by NWS

Home | Current Version | Previous Version | Graphics & Text | Print | Product List | Glossary On
Versions: 1 2 3 4 5 6 7 8 9 10 11 12 13 14 15 16 17 18 19 20 21 22 23 24 25 26 27 28 29 30 31 32 33 34 35 36 37 38 39 40 41 42 43 44 45 46 47 48
000
ASUS45 KCYS 220910
RWRWY

WYOMING REGIONAL WEATHER ROUNDUP
NATIONAL WEATHER SERVICE CHEYENNE WY
200 AM MST MON DEC 22 2014

NOTE:  "FAIR" INDICATES FEW OR NO CLOUDS BELOW 12,000 FEET
WITH NO SIGNIFICANT WEATHER AND/OR OBSTRUCTIONS TO VISIBILITY.

WYZ001-221000-
YELLOWSTONE NATIONAL PARK

CITY           SKY/WX    TMP DP  RH WIND       PRES   REMARKS
LK YELLOWSTONE   N/A     22  17  81 W12G18    29.80S WCI  10
W YELLOWSTONE  NOT AVBL

$$
WYZ002>013-054>058-071-098>099-221000-
NORTHERN WYOMING

CITY           SKY/WX    TMP DP  RH WIND       PRES   REMARKS
JACKSON        CLOUDY    32  18  55 W10       29.84F WCI  24
CODY           MOCLDY    36  18  48 W6        29.74S WCI  31
GREYBULL       MOCLDY    29  20  69 W8        29.74R WCI  21
WORLAND        FAIR      24  21  88 SW10      29.75S WCI  14
SHERIDAN       FAIR      38  20  48 NW21      29.68R WCI  28
BUFFALO        MOCLDY    36  14  40 NW20G30   29.67R WCI  25
GILLETTE       FAIR      31  27  85 W14       29.65R WCI  21
HULETT           N/A    N/A N/A N/A MISG        N/A
NEWCASTLE      MIX PCPN  32  32 100 NW28G36   29.61R WCI  18

$$
WYZ014>020-022>026-101>103-221000-
CENTRAL WYOMING

CITY           SKY/WX    TMP DP  RH WIND       PRES   REMARKS
BIG PINEY      CLOUDY    27  20  75 NW12      29.85S WCI  17
PINEDALE       FAIR      18  14  86 CALM      29.85S
DUBOIS         NOT AVBL
LANDER         MOCLDY    30  15  53 NW8       29.77R WCI  22
RIVERTON       FAIR      32  19  58 NW21G29   29.76R WCI  20
CASPER         MOCLDY    29  22  75 W9        29.73R WCI  20
DOUGLAS        CLOUDY    32  27  81 NW13      29.71R WCI  22

$$
WYZ021-027>030-104>119-221000-
SOUTHERN WYOMING

CITY           SKY/WX    TMP DP  RH WIND       PRES   REMARKS
EVANSTON       CLOUDY    31  28  89 W10       29.97R WCI  22
KEMMERER       CLOUDY    30  27  86 W25       29.92R WCI  16
FORT BRIDGER   CLOUDY    32  29  87 W22G32    29.90F WCI  20
ROCK SPRINGS   FAIR      28  22  78 W18       29.85R WCI  15
DIXON          FAIR      28  23  82 W10       29.85S WCI  18
RAWLINS        FAIR      25  14  63 NW18      29.76S WCI  11
SARATOGA       FAIR      23  18  80 NW7       29.77F WCI  15
LARAMIE        FAIR      23  20  88 N14       29.70R WCI  11
CHEYENNE       FAIR      29  20  69 NW20G29   29.68R WCI  16
TORRINGTON     FAIR     N/A N/A N/A NW17      29.64R
PINE BLUFFS    CLOUDY    32  28  86 NW15      29.67R WCI  22

$$


USA.gov is the U.S. government's official web portal to all federal, state and local government web resources and services.